Regional Weather Roundup
Issued by NWS

Home | Current Version | Previous Version | Graphics & Text | Print | Product List | Glossary On
Versions: 1 2 3 4 5 6 7 8 9 10 11 12 13 14 15 16 17 18 19 20 21 22 23 24 25 26 27 28 29 30 31 32 33 34 35 36 37 38 39 40 41 42 43 44 45 46 47 48 49 50
000
ASUS43 KLSX 261507
RWRMO

WEATHER SUMMARY FOR MISSOURI
NATIONAL WEATHER SERVICE SPRINGFIELD MO
900 AM CST MON JAN 26 2015

NOTE: "FAIR" INDICATES FEW OR NO CLOUDS BELOW 12,000 FEET WITH NO
       SIGNIFICANT WEATHER AND/OR OBSTRUCTIONS TO VISIBILITY.
       CURRENT SKY AND/OR WEATHER CONDITIONS ARE NOT AVAILABLE FOR
       CHILLICOTHE AND FARMINGTON.

MOZ001>031-035>038-043-044-053-054-261600-
...NORTHERN AND WESTERN MISSOURI...

CITY           SKY/WX    TMP DP  RH WIND       PRES   REMARKS
KANSAS CTY INT MOSUNNY   33  30  88 SW13      29.96F WCI  24
KANSAS C DTWN  SUNNY     36  30  79 SW8       29.98F WCI  30
LEE`S SUMMIT   SUNNY     33  29  85 SW10      29.99F WCI  25
ST JOSEPH      SUNNY     30  29  96 S7        29.95F WCI  23
CHILLICOTHE      N/A     31  28  89 S7        29.96F WCI  24
KIRKSVILLE     MOSUNNY   32  30  92 SW8       29.96F WCI  25

$$
MOZ066>068-077>081-088>096-101>105-261600-
...SOUTHWEST MISSOURI...

CITY           SKY/WX    TMP DP  RH WIND       PRES   REMARKS
SPRINGFIELD    SUNNY     33  29  85 SW9       30.06F WCI  25
JOPLIN         SUNNY     35  31  85 S8        30.09F WCI  29

$$
MOZ032>034-039>042-045>050-055>058-069>072-261600-
...CENTRAL MISSOURI...

CITY           SKY/WX    TMP DP  RH WIND       PRES   REMARKS
COLUMBIA       PTSUNNY   32  29  88 SW7       30.03F WCI  26
JEFFERSON CITY CLOUDY    33  28  81 W3        30.06F
ROLLA          CLOUDY    30  27  88 SW8       30.03F WCI  22
SEDALIA        SUNNY     32  29  88 SW8       30.03F WCI  25
WHITEMAN AFB   SUNNY     33  30  86 SW10      30.00F WCI  25
WARRENSBURG    SUNNY     32  30  93 S6        30.01F WCI  26
OSAGE BEACH    SUNNY     34  28  80 SW7       30.06R WCI  28

$$
MOZ051-052-059>065-261600-
...EAST CENTRAL MISSOURI...

CITY           SKY/WX    TMP DP  RH WIND       PRES   REMARKS
ST LOUIS INTL  CLOUDY    30  23  75 W8        30.07R WCI  22
SPIRIT OF STL  CLOUDY    29  24  82 W6        30.07R WCI  23
ST CHARLES     CLOUDY    28  23  81 NW6       30.06R WCI  22

$$
MOZ072>076-082>087-097>100-106>115-261600-
...SOUTH CENTRAL AND SOUTHEAST MISSOURI...

CITY           SKY/WX    TMP DP  RH WIND       PRES   REMARKS
CAPE GIRARDEAU MOSUNNY   32  26  78 NW7       30.08R WCI  26
FARMINGTON     CLOUDY    30  25  80 MISG      30.07R
POPLAR BLUFF   CLOUDY    35  26  69 NW6       30.08S
WEST PLAINS    CLOUDY    33  26  75 W7        30.07F WCI  27

$$



USA.gov is the U.S. government's official web portal to all federal, state and local government web resources and services.